{"data":{"norad_id":26958,"epoch":"2026-05-25T04:04:03.470304Z","epoch_age_seconds":60714,"freshness":"FRESH","line1":"1 26958U 01049B   26145.16948461  .00002272  00000+0  14981-3 0  9999","line2":"2 26958  97.9602 152.9002 0054460 199.4769 160.4378 15.07390358340151","mean_motion":15.07390358,"eccentricity":0.005446,"inclination_deg":97.9602,"raan_deg":152.9002,"arg_perigee_deg":199.4769,"mean_anomaly_deg":160.4378,"bstar":0.00014981,"rev_number":34015,"period_min":95.529336004947,"perigee_km":506.47898823235,"apogee_km":581.87684228937,"semimajor_km":6922.3149152609,"source":"CELESTRAK","updated_at":"2026-05-25T13:38:24.891580Z"}}